[[{"header":{"parameterUnit":"m.s-1","parameterCategory":1,"la1":30.2991,"la2":30.254,"lo1":-89.0895,"lo2":-89.0444,"dy":0.0017,"dx":0.0017,"nx":28,"ny":28,"refTime":"2023-08-19T21:00:00:Z","depth":0,"parameterNumber":2,"parameterNumberName":"U-component_of_WINDS"},"data":[0,0,0,0,0,0,0,0,0,0,0,0,0,0,0,0,0,0,0,0,0,0,0,0,0,0,0,0,0,0,0,0,0,0,0,0,0,0,0,0,0,0,0,0,0,0,0,0,0,0,0,0,0,0,0,0,0,0,-2.1895,-2.1895,0,-2.1913,-2.1913,-2.1914,-2.1906,-2.1906,-2.1905,-2.1905,-2.1922,-2.1923,-2.1924,0,0,0,0,0,0,0,0,0,0,0,0,0,-2.1853,-2.1854,-2.1895,-2.1895,-2.1895,-2.1913,-2.1913,-2.1914,-2.1906,-2.1906,-2.1905,-2.1905,-2.1922,-2.1923,-2.1924,0,0,0,0,0,0,0,0,0,0,0,0,0,-2.1871,-2.1854,-2.1895,-2.1894,-2.1894,-2.1913,-2.1913,-2.1914,-2.1906,-2.1906,-2.1905,-2.1904,-2.1921,-2.1923,-2.1924,-2.1945,0,0,-2.1928,-2.1928,0,0,0,0,0,0,0,0,-2.187,-2.1873,-2.1894,-2.1894,-2.1894,-2.1907,-2.1905,-2.1924,-2.1906,-2.1902,-2.1905,-2.1904,-2.1917,-2.1919,-2.1924,-2.1946,-2.1946,-2.1928,-2.1929,-2.1929,-2.193,0,0,0,0,0,0,0,-2.1869,-2.1872,-2.1902,-2.1894,-2.1894,-2.1892,-2.1894,-2.1909,-2.1913,-2.1902,-2.1901,-2.1904,-2.1917,-2.1923,-2.1924,-2.1947,-2.1928,-2.1929,-2.193,-2.193,-2.1988,-2.1989,0,0,0,0,0,0,-2.1868,-2.1871,-2.1901,-2.1903,-2.188,-2.1894,-2.1896,-2.1903,-2.1913,-2.1913,-2.1904,-2.1903,-2.1921,-2.1923,-2.1925,-2.195,-2.1929,-2.1931,-2.1931,-2.1987,-2.1988,-2.1989,0,0,0,0,0,0,-2.1867,-2.1871,-2.1901,-2.1887,-2.189,-2.1895,-2.1904,-2.1904,-2.1909,-2.1914,-2.1915,-2.1909,-2.192,-2.1923,-2.194,-2.1951,-2.1931,-2.1932,-2.1986,-2.1987,-2.1988,-2.2002,0,0,0,0,0,0,-2.1866,-2.187,-2.1878,-2.1887,-2.1891,-2.1916,-2.1904,-2.1905,-2.1912,-2.191,-2.1919,-2.192,-2.192,-2.1938,-2.1942,-2.1952,-2.1933,-2.1985,-2.1987,-2.1988,-2.2,-2.2003,-2.2006,0,0,0,0,0,-2.1864,-2.1881,-2.1879,-2.1882,-2.1901,-2.1917,-2.1919,-2.1919,-2.1912,-2.192,-2.1924,-2.1919,-2.1949,-2.194,-2.1944,-2.1955,-2.1985,-2.1986,-2.1988,-2.1999,-2.2003,-2.2006,0,0,0,0,0,0,-2.1872,-2.1882,-2.188,-2.1899,-2.1907,-2.1915,-2.1925,-2.1923,-2.1933,-2.1931,-2.1931,-2.1933,-2.1951,-2.1955,-2.1944,-2.1976,-2.1966,-2.1968,-2.1973,-2.1977,-2.1979,-2.1978,-2.1934,0,0,0,0,0,-2.1876,-2.1888,-2.1896,-2.1912,-2.1917,-2.1921,-2.1927,-2.1927,-2.1935,-2.1938,-2.1943,-2.1951,-2.1962,-2.197,-2.198,-2.2001,-2.2003,-2.2011,-2.2013,-2.2015,-2.2018,-2.203,-2.2034,-2.1994,-2.1994,-2.1994,0,0,-2.1884,-2.1891,-2.1899,-2.1914,-2.192,-2.1933,-2.1923,-2.1937,-2.1946,-2.194,-2.1957,-2.1961,-2.197,-2.199,-2.1998,-2.1993,-2.2029,-2.2018,-2.2019,-2.202,-2.2032,-2.2036,-2.2039,-2.1996,-2.1995,-2.1995,0,0,-2.1906,-2.1912,-2.1927,-2.1934,-2.1944,-2.1947,-2.1951,-2.196,-2.1962,-2.198,-2.1976,-2.1987,-2.2006,-2.2013,-2.2019,-2.2045,-2.2042,-2.2049,-2.2062,-2.2075,-2.2078,-2.208,-2.209,-2.2094,-2.2051,-2.2051,-2.2051,0,-2.1915,-2.1934,-2.1935,-2.1949,-2.1957,-2.1953,-2.1969,-2.1975,-2.1988,-2.1993,-2.1987,-2.2013,-2.2018,-2.204,-2.2046,-2.2051,-2.2056,-2.2048,-2.2077,-2.208,-2.2083,-2.2092,-2.2096,-2.2052,-2.2052,-2.2052,-2.2052,0,-2.1944,-2.1958,-2.1969,-2.1983,-2.1991,-2.2006,-2.201,-2.2018,-2.2018,-2.2021,-2.2039,-2.2046,-2.2059,-2.2064,-2.2063,-2.2086,-2.2083,-2.2077,-2.2067,-2.2087,-2.2096,-2.21,-2.2053,-2.2053,-2.2053,-2.2052,0,0,-2.197,-2.1986,-2.199,-2.1996,-2.2008,-2.2018,-2.2034,-2.2047,-2.2054,-2.2064,-2.2076,-2.2094,-2.2089,-2.2096,-2.2096,-2.2107,-2.2129,-2.21,-2.2101,-2.2106,-2.2155,-2.2159,-2.2163,-2.2126,-2.2127,-2.2128,-2.2154,0,-2.1993,-2.202,-2.2022,-2.2046,-2.2059,-2.2057,-2.207,-2.2079,-2.2083,-2.2095,-2.2099,-2.2111,-2.2104,-2.2109,-2.2119,-2.2124,-2.2138,-2.2122,-2.2138,-2.2139,-2.2136,-2.2168,-2.2172,-2.2197,-2.2158,-2.2159,-2.2159,0,-2.2022,-2.2034,-2.206,-2.2071,-2.2077,-2.2089,-2.2102,-2.2113,-2.2123,-2.2125,-2.2134,-2.2133,-2.2149,-2.2138,-2.2161,-2.2149,-2.2156,-2.216,-2.2161,-2.2162,-2.215,-2.217,-2.2205,-2.2209,-2.2164,-2.2164,-2.2164,0,-2.2039,-2.2061,-2.208,-2.2086,-2.2099,-2.2108,-2.2114,-2.2124,-2.2132,-2.2143,-2.2149,-2.2162,-2.2169,-2.2179,-2.2182,-2.2173,-2.2204,-2.2193,-2.2206,-2.2206,-2.2212,-2.2212,-2.2249,-2.2217,-2.2217,-2.2217,-2.2217,0,-2.2064,-2.208,-2.2088,-2.2099,-2.2117,-2.212,-2.2138,-2.2144,-2.2153,-2.2165,-2.2164,-2.2176,-2.2179,-2.2191,-2.2194,-2.2212,-2.2215,-2.2218,-2.2218,-2.2218,-2.2218,-2.2222,-2.2221,-2.2218,-2.2218,-2.2218,-2.2217,0,-2.2085,-2.2091,-2.2111,-2.2123,-2.2127,-2.214,-2.215,-2.2161,-2.2166,-2.2182,-2.2186,-2.2193,-2.2208,-2.2212,-2.2229,-2.2231,-2.2253,-2.2251,-2.225,-2.225,-2.2263,-2.2262,-2.2304,-2.231,-2.2274,-2.2274,-2.2274,0,-2.2101,-2.2113,-2.2127,-2.2136,-2.2143,-2.2157,-2.2166,-2.217,-2.2179,-2.2193,-2.2203,-2.2218,-2.223,-2.2254,-2.226,-2.2274,-2.2273,-2.2287,-2.2275,-2.2275,-2.2274,-2.2273,-2.2275,-2.2289,-2.2289,-2.229,-2.229,0,-2.2128,-2.2131,-2.2144,-2.2159,-2.217,-2.2182,-2.2193,-2.22,-2.2205,-2.2216,-2.2232,-2.2242,-2.226,-2.2275,-2.229,-2.2296,-2.2294,-2.2294,-2.2298,-2.2297,-2.2296,-2.2298,-2.2256,-2.2293,-2.2292,-2.2292,-2.2292,-2.2292,-2.2147,-2.2159,-2.2171,-2.2186,-2.2195,-2.2206,-2.2218,-2.2225,-2.2238,-2.2254,-2.2256,-2.2273,-2.2284,-2.2304,-2.2311,-2.2324,-2.232,-2.2325,-2.2327,-2.2328,-2.233,-2.2294,-2.2327,-2.2327,-2.2327,-2.2327,-2.2326,0,-2.2174,-2.2183,-2.2197,-2.2213,-2.2226,-2.2224,-2.2237,-2.2247,-2.2263,-2.2274,-2.2286,-2.2305,-2.232,-2.2329,-2.2344,-2.2353,-2.2353,-2.2357,-2.2356,-2.2358,-2.2332,-2.2327,-2.2357,-2.2357,-2.2357,-2.2357,-2.2357,-2.2357,-2.219,-2.221,-2.2215,-2.2239,-2.2247,-2.2265,-2.2273,-2.2283,-2.2292,-2.2313,-2.2326,-2.2332,-2.2342,-2.2359,-2.2373,-2.2375,-2.238,-2.2385,-2.2387,-2.2363,-2.2359,-2.2356,-2.2352,-2.2386,-2.2386,-2.2411,-2.2412,-2.2412]},{"header":{"parameterUnit":"m.s-1","parameterCategory":1,"la1":30.2991,"la2":30.254,"lo1":-89.0895,"lo2":-89.0444,"dy":0.0017,"dx":0.0017,"nx":28,"ny":28,"refTime":"2023-08-19T21:00:00:Z","depth":0,"parameterNumber":3,"parameterNumberName":"V-component_of_WINDS"},"data":[0,0,0,0,0,0,0,0,0,0,0,0,0,0,0,0,0,0,0,0,0,0,0,0,0,0,0,0,0,0,0,0,0,0,0,0,0,0,0,0,0,0,0,0,0,0,0,0,0,0,0,0,0,0,0,0,0,0,0.5448,0.5447,0,0.5357,0.5355,0.5354,0.5338,0.5338,0.5339,0.534,0.5239,0.5236,0.5233,0,0,0,0,0,0,0,0,0,0,0,0,0,0.5604,0.5601,0.5448,0.5447,0.5446,0.5357,0.5355,0.5354,0.5337,0.5338,0.5339,0.534,0.524,0.5236,0.5232,0,0,0,0,0,0,0,0,0,0,0,0,0,0.5526,0.56,0.5449,0.5427,0.5424,0.5357,0.5355,0.5354,0.5337,0.5338,0.534,0.5341,0.5242,0.5237,0.5232,0.5177,0,0,0.5216,0.5214,0,0,0,0,0,0,0,0,0.5531,0.5521,0.5431,0.5429,0.5425,0.536,0.5373,0.5294,0.5337,0.537,0.534,0.5341,0.5278,0.527,0.525,0.5172,0.5168,0.5216,0.5213,0.521,0.5209,0,0,0,0,0,0,0,0.5536,0.5524,0.5412,0.543,0.5426,0.542,0.5411,0.5358,0.5318,0.5367,0.5366,0.5356,0.5276,0.5255,0.5247,0.5167,0.5216,0.5211,0.5208,0.5206,0.5039,0.5037,0,0,0,0,0,0,0.5546,0.5529,0.5415,0.5409,0.5482,0.5417,0.5406,0.538,0.5319,0.5311,0.5355,0.5355,0.5263,0.5253,0.5244,0.5175,0.521,0.5206,0.5203,0.504,0.5039,0.5037,0,0,0,0,0,0,0.555,0.5536,0.5418,0.5469,0.5453,0.5413,0.5383,0.5377,0.5356,0.531,0.5302,0.534,0.5264,0.5251,0.5194,0.5172,0.5203,0.5199,0.5042,0.504,0.5038,0.5038,0,0,0,0,0,0,0.5554,0.5538,0.5518,0.5468,0.5451,0.5372,0.5382,0.5375,0.5348,0.5347,0.5294,0.5286,0.5264,0.5202,0.5189,0.5165,0.5195,0.5044,0.5041,0.5038,0.504,0.5036,0.5033,0,0,0,0,0,0.556,0.552,0.5517,0.5503,0.5425,0.5371,0.536,0.5337,0.5346,0.5325,0.5295,0.5288,0.5177,0.5196,0.5182,0.5156,0.5045,0.5042,0.5039,0.5041,0.5037,0.5033,0,0,0,0,0,0,0.5565,0.5513,0.5509,0.5453,0.5417,0.5368,0.534,0.5333,0.5292,0.5293,0.5264,0.5252,0.5196,0.517,0.5193,0.5099,0.5111,0.5105,0.5118,0.5114,0.511,0.5117,0.5191,0,0,0,0,0,0.556,0.5522,0.5478,0.5433,0.5415,0.5381,0.5356,0.5342,0.5302,0.5286,0.5252,0.5213,0.5169,0.514,0.5097,0.5037,0.5024,0.5012,0.5009,0.5006,0.5,0.4965,0.4959,0.5027,0.5027,0.5027,0,0,0.5549,0.5516,0.5493,0.5433,0.5403,0.5363,0.5368,0.5325,0.5294,0.5279,0.5223,0.5197,0.5151,0.5092,0.5064,0.5069,0.4979,0.5002,0.5,0.4996,0.4962,0.4955,0.495,0.5025,0.5025,0.5025,0,0,0.5507,0.5479,0.5438,0.5408,0.5364,0.5342,0.5332,0.5285,0.5268,0.5213,0.52,0.5162,0.5087,0.5055,0.5028,0.4975,0.4966,0.4962,0.4944,0.491,0.4905,0.49,0.4879,0.4873,0.4957,0.4957,0.4957,0,0.5497,0.5438,0.5417,0.5374,0.5347,0.5335,0.5292,0.5264,0.5207,0.5188,0.5194,0.51,0.5068,0.5001,0.4989,0.4968,0.4954,0.4967,0.4908,0.4903,0.4898,0.4878,0.487,0.4957,0.4957,0.4957,0.4957,0,0.5427,0.5386,0.5358,0.5306,0.5276,0.5233,0.5204,0.5176,0.5165,0.5141,0.5084,0.5046,0.4995,0.4978,0.4965,0.4909,0.4913,0.4914,0.4925,0.4891,0.4872,0.4864,0.4956,0.4956,0.4956,0.4956,0,0,0.5384,0.5323,0.5312,0.5289,0.524,0.5206,0.5163,0.5115,0.5091,0.5052,0.5014,0.4951,0.4952,0.4922,0.4906,0.4877,0.4836,0.4881,0.488,0.4873,0.477,0.4768,0.476,0.4831,0.4829,0.4828,0.4773,0,0.5335,0.5259,0.524,0.5174,0.5135,0.5123,0.5085,0.5049,0.5027,0.4989,0.4963,0.4919,0.4924,0.4906,0.4877,0.4847,0.4814,0.4851,0.4792,0.479,0.4803,0.475,0.4748,0.4698,0.4766,0.4764,0.4763,0,0.5268,0.523,0.5161,0.5118,0.51,0.5067,0.5021,0.4986,0.4945,0.493,0.4898,0.4885,0.4837,0.4852,0.4785,0.481,0.4785,0.4767,0.4764,0.4756,0.4774,0.4738,0.4681,0.4673,0.4752,0.4753,0.4753,0,0.5241,0.5174,0.5123,0.5104,0.5052,0.5028,0.5005,0.4966,0.4938,0.4898,0.488,0.4834,0.4808,0.4772,0.4746,0.476,0.468,0.4693,0.4665,0.4665,0.4647,0.4648,0.4583,0.4634,0.4634,0.4634,0.4634,0,0.5188,0.5145,0.5111,0.508,0.5032,0.501,0.4962,0.4938,0.4904,0.4866,0.4853,0.4818,0.4787,0.4747,0.4726,0.4673,0.4661,0.4647,0.4641,0.4647,0.4648,0.4628,0.463,0.4632,0.4633,0.4633,0.4633,0,0.5149,0.5125,0.5069,0.5026,0.5014,0.498,0.4942,0.491,0.4888,0.4841,0.4828,0.4792,0.4745,0.4716,0.4655,0.4641,0.4582,0.4579,0.4596,0.4593,0.4566,0.4568,0.4484,0.4471,0.4532,0.4532,0.4531,0,0.5116,0.5083,0.5037,0.5012,0.4989,0.4949,0.4922,0.4898,0.487,0.4822,0.4796,0.4748,0.4708,0.4633,0.46,0.4553,0.4547,0.4521,0.454,0.4546,0.4545,0.4546,0.4542,0.4517,0.4517,0.4516,0.4516,0,0.5058,0.5048,0.501,0.4968,0.4936,0.4901,0.4866,0.4846,0.4816,0.4785,0.4737,0.4707,0.4646,0.4598,0.4549,0.4523,0.4513,0.4511,0.4501,0.4505,0.4516,0.4508,0.4585,0.4512,0.4512,0.4513,0.4513,0.4513,0.502,0.499,0.4953,0.4911,0.4883,0.4851,0.4819,0.4794,0.4755,0.4705,0.4693,0.4643,0.4602,0.4536,0.4509,0.4468,0.4471,0.4458,0.4454,0.4451,0.445,0.4525,0.4459,0.4459,0.4459,0.4459,0.4459,0,0.496,0.4937,0.4898,0.4851,0.4818,0.4815,0.4776,0.4748,0.4705,0.4669,0.4631,0.4576,0.453,0.4494,0.4446,0.442,0.4414,0.4408,0.4408,0.4402,0.445,0.4462,0.4413,0.4413,0.4413,0.4413,0.4413,0.4413,0.4925,0.4875,0.4861,0.4796,0.4772,0.4724,0.4702,0.4672,0.4643,0.4583,0.4546,0.4524,0.4487,0.4437,0.4394,0.4384,0.4366,0.436,0.435,0.4394,0.4399,0.4404,0.4415,0.4357,0.4357,0.4305,0.4305,0.4304]}]]